Flag for United Kingdom Weather past 2 weeks in Bangor, Wales, United Kingdom

Now
52 °F

Duststorm.


Feels Like: 52 °F
Forecast: 60 / 76 °F
Wind: 1 mph from Northwest

Location: Capel Curig

Current Time: Jul 23, 2014 at 7:12:56 AM

Latest Report: Jul 23, 2014 at 5:00 AM


Visibility: 0 mi

Pressure: 30.26 "Hg

Humidity: 100%

Dew point: 52 °F

Location of BangorLocation

Historic Weather in Bangor — Graph

°F

Bangor temperature yesterday

Maximum temperature yesterday: 74 °F (at 1:00 PM)
Minimum temperature yesterday: 51 °F (at 6:00 AM)
Average temperature yesterday: 63 °F

Past Weeks' High & Low Weather Summary

 TemperatureHumidityPressure
High75 °F (Jul 18, 3:00 PM)100% (Jul 11, 5:00 AM)30.28 "Hg (Jul 11, 5:00 AM)
Low48 °F (Jul 8, 6:00 AM)58% (Jul 15, 2:00 PM)29.75 "Hg (Jul 19, 5:00 PM)
Average61 °F83%30.04 "Hg
* Reported Jul 8 5:00 AM — Jul 23 5:00 AM, Bangor, Weather by CustomWeather, © 2014

Note: Actual official high and low records may vary slightly from our data, if they occured in-between our weather recording intervals... More about our weather records

Advertising

Bangor weather history for previous 24 hours

 ConditionsComfort  
Time TempWeatherWind HumidityBarometerVisibility
5:00 AM
Jul 23
52 °FDuststorm.1 mph100%30.26 "Hg0 mi
4:00 AM54 °FDuststorm.1 mph100%30.27 "Hg0 mi
3:00 AM56 °FDuststorm.No wind100%30.27 "Hg0 mi
2:00 AM56 °FFog.1 mph100%30.27 "Hg6 mi
1:00 AM56 °FFog.2 mph99%30.27 "Hg3 mi
12:00 AM58 °FFog.1 mph97%30.28 "Hg8 mi
5:00 PM
Jul 22
72 °FMild.7 mph70%30.23 "Hg28 mi
4:00 PM72 °FMild.7 mph69%30.24 "Hg28 mi
3:00 PM71 °FMild.8 mph73%30.24 "Hg18 mi
2:00 PM72 °FMild.7 mph66%30.24 "HgN/A
1:00 PM74 °FMild.3 mph62%30.24 "HgN/A
12:00 PM72 °FMild.3 mph65%30.24 "Hg25 mi
11:00 AM69 °FMild.3 mph67%30.24 "Hg19 mi
10:00 AM67 °FMild.1 mph74%30.26 "Hg11 mi
9:00 AM63 °FMild.1 mph84%30.26 "Hg22 mi
8:00 AM57 °FCool.1 mph99%30.26 "Hg17 mi
7:00 AM54 °FCool.1 mph99%30.26 "Hg1 mi
Weather by CustomWeather, © 2014

See weather overviewHow to use our weather pages